CW0405 Weather Reports


time (UTC)temp
F
wind
direction
speed
knots
gust
knots
rain 1hr
in
rain 24hr
in
rain mn
in
humidity
%
barometer
mb
20260508054640 43 334 0.0 0.0 0.00 0.00 0.00 65 1006.1
20260508054136 44 334 0.0 0.9 0.00 0.00 0.00 65 1006.1
20260508053635 44 334 0.0 0.9 0.00 0.00 0.00 63 1006.1
20260508053134 44 334 0.0 0.0 0.00 0.00 0.00 61 1006.2
20260508052134 45 335 0.0 0.0 0.00 0.00 0.00 58 1006.3
20260508051635 46 334 0.0 0.0 0.00 0.00 0.00 58 1006.3
20260508051135 46 334 0.0 0.0 0.00 0.00 0.00 56 1006.3
20260508050636 46 335 0.0 0.0 0.00 0.00 0.00 56 1006.4
20260508050136 46 335 0.0 0.0 0.00 0.00 0.00 55 1006.4
20260508045131 47 335 0.0 0.0 0.00 0.00 0.00 53 1006.6
20260508044631 47 335 0.0 0.0 0.00 0.00 0.00 53 1006.6
20260508043632 47 334 0.0 0.9 0.00 0.00 0.00 52 1006.5
20260508043128 47 260 0.0 0.0 0.00 0.00 0.00 53 1006.5
20260508042628 48 276 0.0 0.0 0.00 0.00 0.00 53 1006.5
20260508042134 48 276 0.0 0.0 0.00 0.00 0.00 53 1006.6
20260508041625 48 276 0.0 0.0 0.00 0.00 0.00 51 1006.8
20260508041122 48 0 0.0 2.6 0.00 0.00 0.00 51 1006.6
20260508040624 48 269 0.0 2.6 0.00 0.00 0.00 52 1006.5
20260508040117 48 293 0.0 1.7 0.00 0.00 0.00 52 1006.5
20260508035612 48 257 0.0 1.7 0.00 0.00 0.00 53 1006.5
20260508035105 48 316 0.0 0.0 0.00 0.00 0.00 53 1006.5
20260508034600 49 244 0.0 0.0 0.00 0.00 0.00 53 1006.6
20260508034054 49 172 0.0 0.0 0.00 0.00 0.00 52 1006.5
20260508033549 49 172 0.0 0.9 0.00 0.00 0.00 52 1006.5
20260508033043 49 247 0.0 4.3 0.00 0.00 0.00 52 1006.5
20260508032538 49 249 0.0 4.3 0.00 0.00 0.00 53 1006.4
20260508032030 49 135 0.0 1.7 0.00 0.00 0.00 53 1006.4
20260508031524 49 281 0.0 2.6 0.00 0.00 0.00 54 1006.4
20260508031017 49 255 0.0 2.6 0.00 0.00 0.00 55 1006.4
20260508030512 48 316 0.0 1.7 0.00 0.00 0.00 56 1006.4
20260508025512 49 225 0.0 2.6 0.00 0.00 0.00 57 1006.1
20260508024954 49 219 0.0 1.7 0.00 0.00 0.00 55 1006.1
20260508024450 49 231 0.0 0.9 0.00 0.00 0.00 56 1006.1
20260508023944 50 248 0.0 0.0 0.00 0.00 0.00 55 1006.1
20260508023436 50 196 0.0 0.0 0.00 0.00 0.00 54 1006.1
20260508022932 50 186 0.0 0.0 0.00 0.00 0.00 51 1006.1
20260508022426 51 180 0.0 1.7 0.00 0.00 0.00 51 1006.1
20260508021918 51 221 0.0 1.7 0.00 0.00 0.00 50 1006.2
20260508021413 51 224 0.0 0.0 0.00 0.00 0.00 50 1006.2
20260508020906 51 224 0.0 0.0 0.00 0.00 0.00 49 1006.2
20260508020401 51 224 0.0 0.0 0.00 0.00 0.00 49 1006.2
20260508015855 51 224 0.0 0.0 0.00 0.00 0.00 49 1006.0
20260508015350 51 224 0.0 1.7 0.00 0.00 0.00 48 1005.9
20260508014841 51 224 0.0 1.7 0.00 0.00 0.00 47 1005.9
20260508013832 51 201 0.0 0.0 0.00 0.00 0.00 48 1005.8
20260508013324 52 243 0.0 0.0 0.00 0.00 0.00 48 1005.6
20260508012818 52 243 0.0 0.0 0.00 0.00 0.00 47 1005.6
20260508012314 52 243 0.0 0.0 0.00 0.00 0.00 46 1005.6
20260508011808 52 248 0.0 0.0 0.00 0.00 0.00 45 1005.5
20260508011301 53 203 0.0 0.0 0.00 0.00 0.00 44 1005.5
20260508010758 53 203 0.0 0.9 0.00 0.00 0.00 44 1005.4
20260508010249 53 219 0.0 0.9 0.00 0.00 0.00 43 1005.3
20260508005742 53 224 0.0 1.7 0.00 0.00 0.00 43 1005.2
20260508005237 54 223 0.0 1.7 0.00 0.00 0.00 42 1005.2
20260508004731 54 246 0.0 0.0 0.00 0.00 0.00 42 1005.1
20260508004223 54 235 0.0 0.0 0.00 0.00 0.00 41 1005.1
20260508003719 54 235 0.0 0.0 0.00 0.00 0.00 41 1005.1
20260508003211 55 233 0.0 0.9 0.00 0.00 0.00 40 1005.0
20260508002705 55 250 0.0 2.6 0.00 0.00 0.00 40 1004.9
20260508002202 55 294 0.0 2.6 0.00 0.00 0.00 41 1004.8
20260508001148 56 314 0.0 0.9 0.00 0.00 0.00 38 1004.8
20260508000136 56 214 0.9 3.5 0.00 0.00 0.00 38 1004.6
20260507235629 56 265 0.0 2.6 0.00 0.00 0.00 37 1004.6
20260507234619 57 335 0.9 3.5 0.00 0.00 0.00 36 1004.5
20260507234111 58 240 0.0 3.5 0.00 0.00 0.00 35 1004.5
20260507233606 58 51 0.9 6.1 0.00 0.00 0.00 35 1004.5
20260507233101 58 312 0.9 7.0 0.00 0.00 0.00 34 1004.4
20260507232553 58 170 0.9 7.0 0.00 0.00 0.00 34 1004.3
20260507232048 59 297 1.7 5.2 0.00 0.00 0.00 34 1004.2
20260507231544 59 209 0.9 5.2 0.00 0.00 0.00 34 1004.2
20260507230529 59 323 0.9 7.8 0.00 0.00 0.00 33 1004.1
20260507225518 60 235 2.6 7.8 0.00 0.00 0.00 32 1004.1
20260507225012 60 249 1.7 7.8 0.00 0.00 0.00 32 1004.1
20260507224507 60 346 0.9 5.2 0.00 0.00 0.00 32 1004.0
20260507224001 61 309 1.7 4.3 0.00 0.00 0.00 32 1004.0
20260507223506 61 31 1.7 8.7 0.00 0.00 0.00 32 1004.0
20260507222951 61 240 1.7 8.7 0.00 0.00 0.00 32 1003.8
20260507222443 62 257 1.7 6.1 0.00 0.00 0.00 32 1003.8
20260507221937 62 288 0.9 6.1 0.00 0.00 0.00 31 1003.7
20260507221432 62 209 0.9 10.4 0.00 0.00 0.00 31 1003.7
20260507220925 62 270 1.7 10.4 0.00 0.00 0.00 31 1003.6
20260507220418 63 133 1.7 9.6 0.00 0.00 0.00 31 1003.6
20260507215406 63 259 1.7 6.1 0.00 0.00 0.00 33 1003.5
20260507214901 63 162 2.6 7.0 0.00 0.00 0.00 32 1003.5
20260507214354 63 312 2.6 9.6 0.00 0.00 0.00 32 1003.5
20260507212837 64 56 1.7 11.3 0.00 0.00 0.00 30 1003.4
20260507212330 63 248 3.5 11.3 0.00 0.00 0.00 31 1003.4
20260507211824 64 304 2.6 9.6 0.00 0.00 0.00 30 1003.4
20260507210813 64 282 2.6 8.7 0.00 0.00 0.00 30 1003.4
20260507210308 64 20 1.7 8.7 0.00 0.00 0.00 30 1003.4
20260507205800 64 221 1.7 8.7 0.00 0.00 0.00 30 1003.5
20260507205254 64 251 1.7 8.7 0.00 0.00 0.00 31 1003.4
20260507204747 64 254 2.6 8.7 0.00 0.00 0.00 31 1003.4
20260507204242 64 278 3.5 10.4 0.00 0.00 0.00 31 1003.4
20260507203736 64 219 3.5 10.4 0.00 0.00 0.00 31 1003.3
20260507203230 64 154 1.7 7.0 0.00 0.00 0.00 31 1003.4
20260507202725 63 316 1.7 7.8 0.00 0.00 0.00 29 1003.4
20260507202219 63 288 3.5 11.3 0.00 0.00 0.00 30 1003.4
20260507201711 63 266 3.5 11.3 0.00 0.00 0.00 31 1003.4
20260507201207 63 134 2.6 12.2 0.00 0.00 0.00 31 1003.4
20260507200659 63 151 2.6 12.2 0.00 0.00 0.00 30 1003.5
20260507200155 63 174 3.5 11.3 0.00 0.00 0.00 32 1003.5
20260507195648 63 195 1.7 8.7 0.00 0.00 0.00 30 1003.5
20260507195146 64 231 1.7 7.8 0.00 0.00 0.00 33 1003.5
20260507194644 63 172 2.6 7.8 0.00 0.00 0.00 35 1003.5
20260507194145 63 309 2.6 7.8 0.00 0.00 0.00 33 1003.5
20260507193646 63 276 2.6 7.8 0.00 0.00 0.00 33 1003.5
20260507193144 63 146 2.6 7.8 0.00 0.00 0.00 33 1003.5
20260507192143 63 253 1.7 7.8 0.00 0.00 0.00 35 1003.7
20260507191645 63 235 2.6 6.1 0.00 0.00 0.00 33 1003.8
20260507191140 63 346 2.6 12.2 0.00 0.00 0.00 33 1003.8
20260507190640 63 274 3.5 12.2 0.00 0.00 0.00 34 1003.8
20260507190139 63 110 3.5 9.6 0.00 0.00 0.00 33 1003.9
20260507185142 63 256 4.3 12.2 0.00 0.00 0.00 31 1003.9
20260507184639 63 262 3.5 12.2 0.00 0.00 0.00 35 1003.8
20260507184140 64 255 2.6 7.8 0.00 0.00 0.00 35 1003.9
20260507183639 63 288 2.6 7.8 0.00 0.00 0.00 37 1004.0
20260507182643 63 257 2.6 10.4 0.00 0.00 0.00 35 1004.0
20260507181642 63 309 2.6 9.6 0.00 0.00 0.00 34 1004.1
20260507181140 63 289 3.5 12.2 0.00 0.00 0.00 34 1004.2
20260507180643 63 328 3.5 14.8 0.00 0.00 0.00 32 1004.2
20260507180138 63 334 2.6 14.8 0.00 0.00 0.00 33 1004.1
20260507175640 63 304 2.6 8.7 0.00 0.00 0.00 33 1004.2
20260507175141 63 314 3.5 11.3 0.00 0.00 0.00 34 1004.2
20260507174134 63 290 2.6 8.7 0.00 0.00 0.00 38 1003.9
20260507173637 62 231 2.6 9.6 0.00 0.00 0.00 36 1004.0
20260507172635 62 264 3.5 11.3 0.00 0.00 0.00 34 1004.2
20260507172136 62 223 3.5 11.3 0.00 0.00 0.00 37 1004.2
20260507171138 63 263 2.6 8.7 0.00 0.00 0.00 40 1004.2
20260507170630 63 230 3.5 7.8 0.00 0.00 0.00 41 1004.3
20260507170129 62 218 3.5 7.8 0.00 0.00 0.00 44 1004.3
20260507165629 62 273 3.5 7.0 0.00 0.00 0.00 43 1004.4
20260507165131 61 229 2.6 7.8 0.00 0.00 0.00 45 1004.4
20260507164628 61 308 3.5 7.8 0.00 0.00 0.00 49 1004.4
20260507164129 60 235 3.5 7.8 0.00 0.00 0.00 50 1004.6
20260507163630 61 128 2.6 7.0 0.00 0.00 0.00 51 1004.7
20260507163131 61 165 2.6 7.0 0.00 0.00 0.00 52 1004.7
20260507162629 60 285 1.7 7.0 0.00 0.00 0.00 53 1004.8
20260507162130 60 271 1.7 9.6 0.00 0.00 0.00 55 1004.9
20260507161135 60 245 1.7 7.8 0.00 0.00 0.00 53 1004.9
20260507160129 61 300 1.7 7.0 0.00 0.00 0.00 53 1005.0
20260507155629 61 33 2.6 7.0 0.00 0.00 0.00 51 1005.1
20260507154619 61 265 2.6 9.6 0.00 0.00 0.00 54 1005.1
20260507153618 60 263 1.7 6.1 0.00 0.00 0.00 51 1005.2
20260507153118 60 331 1.7 6.1 0.00 0.00 0.00 52 1005.1
20260507152616 60 300 1.7 6.1 0.00 0.00 0.00 51 1005.2
20260507152114 59 192 0.9 7.0 0.00 0.00 0.00 49 1005.2
20260507151613 59 191 1.7 7.0 0.00 0.00 0.00 51 1005.4
20260507150610 60 290 2.6 6.1 0.00 0.00 0.00 49 1005.6
20260507144611 60 188 2.6 7.8 0.00 0.00 0.00 50 1005.7
20260507144112 60 229 2.6 7.8 0.00 0.00 0.00 53 1005.6
20260507143612 60 247 1.7 5.2 0.00 0.00 0.00 54 1005.7
20260507143113 59 251 1.7 6.1 0.00 0.00 0.00 53 1005.6
20260507142613 59 200 1.7 7.0 0.00 0.00 0.00 54 1005.6
20260507142110 59 261 1.7 7.0 0.00 0.00 0.00 54 1005.5
20260507141610 58 243 2.6 6.1 0.00 0.00 0.00 55 1005.6
20260507141109 58 238 2.6 7.0 0.00 0.00 0.00 54 1005.6
20260507140609 58 242 1.7 7.0 0.00 0.00 0.00 55 1005.6
20260507135108 57 281 1.7 4.3 0.00 0.00 0.00 58 1005.5
20260507134609 57 264 0.9 4.3 0.00 0.00 0.00 59 1005.5
20260507134110 57 211 0.9 5.2 0.00 0.00 0.00 59 1005.6
20260507133110 56 111 1.7 5.2 0.00 0.00 0.00 61 1006.0
20260507132109 56 255 1.7 5.2 0.00 0.00 0.00 64 1006.0
20260507131608 55 328 1.7 5.2 0.00 0.00 0.00 66 1006.0
20260507131108 55 7 1.7 5.2 0.00 0.00 0.00 64 1006.1
20260507130603 55 334 2.6 6.1 0.00 0.00 0.00 66 1006.1
20260507130115 54 58 2.6 6.1 0.00 0.00 0.00 65 1006.2
20260507125603 55 30 1.7 5.2 0.00 0.00 0.00 66 1006.2
20260507125104 54 148 0.9 5.2 0.00 0.00 0.00 68 1006.1
20260507124602 54 250 1.7 5.2 0.00 0.00 0.00 68 1006.2
20260507122607 53 303 0.9 6.1 0.00 0.00 0.00 72 1006.1
20260507122103 52 295 0.9 6.1 0.00 0.00 0.00 73 1006.4
20260507121604 52 217 0.9 5.2 0.00 0.00 0.00 75 1006.3
20260507121115 51 169 0.9 3.5 0.00 0.00 0.00 77 1006.4
20260507120616 51 289 0.9 3.5 0.00 0.00 0.00 78 1006.3
20260507120115 50 340 0.9 5.2 0.00 0.00 0.00 79 1006.3
20260507115603 50 322 0.9 5.2 0.00 0.00 0.00 81 1006.3
20260507115105 49 279 0.9 2.6 0.00 0.00 0.00 82 1006.3
20260507114605 49 306 0.9 3.5 0.00 0.00 0.00 82 1006.3
20260507113605 49 274 0.0 4.3 0.00 0.00 0.00 83 1006.2
20260507113102 49 339 0.0 4.3 0.00 0.00 0.00 82 1005.9
20260507112604 49 344 0.0 0.9 0.00 0.00 0.00 83 1006.0
20260507112104 49 276 0.0 2.6 0.00 0.00 0.00 84 1005.9
20260507111104 48 320 0.0 2.6 0.00 0.00 0.00 84 1006.3
20260507110604 48 258 0.9 2.6 0.00 0.00 0.00 84 1006.3
20260507105538 0 0.0 0.0 0.00 0.00 0.00 1006.0
20260507105027 0 0.0 0.0 0.00 0.00 0.00 1005.6
20260507104524 0 0.0 0.0 0.00 0.00 0.00 1005.7
20260507103437 0 0.0 0.0 0.00 0.00 0.00 1005.6
20260507102430 0 0.0 0.0 0.00 0.00 0.00 1005.6
20260507101428 0 0.0 0.0 0.00 0.00 0.00 1005.7
20260507100933 0 0.0 0.0 0.00 0.00 0.00 1005.6
20260507100426 0 0.0 0.0 0.00 0.00 0.00 1005.5
20260507095924 0 0.0 0.0 0.00 0.00 0.00 1005.9
20260507095352 0 0.0 0.0 0.00 0.00 0.00 1006.0
20260507094834 0 0.0 0.0 0.00 0.00 0.00 1005.7
20260507094334 0 0.0 0.0 0.00 0.00 0.00 1005.7
20260507093824 0 0.0 0.0 0.00 0.00 0.00 1005.7
20260507093327 0 0.0 0.0 0.00 0.00 0.00 1005.4
20260507092825 0 0.0 0.0 0.00 0.00 0.00 1005.6
20260507092232 0 0.0 0.0 0.00 0.00 0.00 1005.7
20260507091730 0 0.0 0.0 0.00 0.00 0.00 1005.7
20260507091220 0 0.0 0.0 0.00 0.00 0.00 1005.7
20260507090726 0 0.0 0.0 0.00 0.00 0.00 1005.5
20260507090232 48 0.0 1.7 0.00 0.00 0.00 87 1005.4
20260507085210 48 269 0.9 6.1 0.00 0.00 0.00 87 1005.0
20260507084708 49 234 0.9 6.1 0.00 0.00 0.00 88 1005.3
20260507084207 49 269 0.9 4.3 0.00 0.00 0.00 88 1005.3
20260507083707 49 271 0.9 4.3 0.00 0.00 0.00 88 1005.1
20260507083210 49 318 0.9 4.3 0.00 0.00 0.00 88 1005.0
20260507082710 49 234 0.9 4.3 0.00 0.00 0.00 88 1005.1
20260507082202 49 44 0.9 2.6 0.00 0.00 0.00 87 1005.0
20260507081203 50 248 1.7 6.1 0.00 0.00 0.00 86 1005.1
20260507080705 50 288 1.7 7.8 0.00 0.00 0.00 86 1005.2
20260507080202 50 272 1.7 7.8 0.00 0.00 0.00 85 1005.3
20260507075701 50 312 1.7 5.2 0.00 0.00 0.00 85 1004.9
20260507075150 50 205 2.6 6.1 0.00 0.00 0.00 85 1005.3
20260507074649 50 201 1.7 7.0 0.00 0.00 0.00 85 1005.2
20260507074151 50 329 1.7 7.0 0.00 0.00 0.00 85 1005.1
20260507073649 51 232 0.9 6.1 0.00 0.00 0.00 85 1005.0
20260507073147 51 101 1.7 6.1 0.00 0.00 0.00 85 1004.9
20260507072646 51 233 1.7 7.0 0.00 0.00 0.00 85 1004.6
20260507072147 51 339 1.7 7.0 0.00 0.00 0.00 86 1004.7
20260507071645 51 233 0.9 7.0 0.00 0.00 0.00 87 1004.7
20260507070644 51 274 1.7 6.1 0.00 0.00 0.00 87 1005.0
20260507070141 51 310 1.7 6.1 0.00 0.00 0.00 87 1004.5
20260507065639 51 248 1.7 7.0 0.00 0.00 0.00 87 1004.6
20260507065136 51 260 1.7 7.0 0.00 0.00 0.00 88 1004.6
20260507064637 51 267 1.7 6.1 0.00 0.00 0.00 88 1004.5
20260507064137 52 285 1.7 9.6 0.00 0.00 0.00 88 1004.6
20260507063635 52 250 0.9 9.6 0.00 0.00 0.00 88 1004.4
20260507063133 52 273 0.0 3.5 0.00 0.00 0.00 89 1004.3
20260507062627 52 271 0.9 4.3 0.00 0.00 0.00 89 1004.2
20260507062121 52 212 0.9 4.3 0.00 0.00 0.00 90 1004.5
20260507061624 52 243 0.0 4.3 0.00 0.00 0.00 90 1004.4
20260507061118 52 302 0.0 2.6 0.00 0.00 0.00 90 1004.4
20260507060117 53 281 0.9 6.1 0.00 0.00 0.00 90 1004.5
20260507055619 53 280 0.9 6.1 0.00 0.00 0.00 90 1004.6
20260507055119 53 282 0.9 5.2 0.00 0.00 0.00 91 1004.6